Regional Weather Roundup
Issued by NWS State College, PA

Home | Current Version | Previous Version | Graphics & Text | Print | Product List | Glossary On
Versions: 1 2 3 4 5 6 7 8 9 10 11 12 13 14 15 16 17 18 19 20 21 22 23 24 25 26 27 28 29 30 31 32 33 34 35 36 37 38 39 40 41 42 43 44 45 46 47 48 49 50
000
ASUS41 KCTP 290110
RWRCTP

REGIONAL WEATHER ROUNDUP
NATIONAL WEATHER SERVICE STATE COLLEGE PA
900 PM EDT WED JUN 28 2017

Note: "fair" indicates few or no clouds below 12,000 feet with no
significant weather and/or obstructions to visibility.

* = STATION THAT DOES NOT REPORT PRECIPITATION /E.G. RAIN...SNOW...ETC/
    THUNDER OR FOG.

PAZ002>004-007>009-013>016-020>023-029>032-290200-
WESTERN PENNSYLVANIA

CITY           SKY/WX    TMP DP  RH WIND       PRES   REMARKS
ERIE           CLOUDY    70  51  51 S7        30.01F
MEADVILLE      MOCLDY    68  52  56 S5        30.05F
FRANKLIN*      MOCLDY    64  48  55 S7        30.09F
NEW CASTLE     FAIR      69  54  58 S3        30.07F
BEAVER COUNTY  CLEAR     64  54  68 S3        30.09F
BUTLER*        CLEAR     68  50  52 S5        30.09S
PITTSBURGH INT MOCLDY    70  53  54 SW6       30.09F
PITTSBURGH     CLEAR     68  50  52 S7        30.09F
INDIANA*       CLEAR     66  54  63 CALM      30.13F
LATROBE        PTCLDY    68  55  64 SW6       30.12S
WASHINGTON CO* CLEAR     64  54  68 S3        30.12S
$$

PAZ004>006-010>012-017>019-024>028-033>037-041-042-045-046-049>053-290200-
CENTRAL PENNSYLVANIA

CITY           SKY/WX    TMP DP  RH WIND       PRES   REMARKS
BRADFORD       CLOUDY    63  52  67 VRB3      30.11S
DUBOIS         PTCLDY    64  49  57 VRB6      30.10F
CLEARFIELD     PTCLDY    65  52  62 CALM      30.11F
JOHNSTOWN      CLEAR     64  49  57 SW5       30.14F
ALTOONA        CLEAR     67  54  63 S6        30.13S
STATE COLLEGE  PTCLDY    68  52  56 CALM      30.11F
WILLIAMSPORT   CLOUDY    72  51  47 S7        30.06F
SELINSGROVE    PTCLDY    69  57  65 SW3       30.09F
FT INDIANTOWN  CLOUDY    66  55  68 CALM      30.11S
CAPITAL CITY   CLOUDY    73  47  39 S7        30.11S
HARRISBURG     MOCLDY    72  55  55 SW9       30.10F
YORK           PTCLDY    69  50  50 S6        30.12S
$$

PAZ038>040-043-044-047-048-054-055-060>062-067>071-290200-
EASTERN PENNSYLVANIA

CITY           SKY/WX    TMP DP  RH WIND       PRES   REMARKS
SCRANTON       PTCLDY    70  51  51 S5        30.09S
MOUNT POCONO   CLOUDY    63  50  62 SW6       30.13F
ALLENTOWN      CLOUDY    69  51  52 SW7       30.10S
QUAKERTOWN*    CLOUDY    68  54  60 CALM      30.12F
READING        CLOUDY    72  52  49 S6        30.10S
LANCASTER      PTCLDY    73  51  46 SW8       30.12R
COATESVILLE    CLOUDY    68  52  56 CALM      30.15S
POTTSTOWN      PTCLDY    70  50  49 S5        30.13S
BLUE BELL      CLOUDY    70  50  49 CALM      30.13S
DOYLESTOWN     CLOUDY    70  50  49 VRB3      30.11S
WILLOW GROVE   NOT AVBL
NORTH PHILA    PTCLDY    76  48  37 SW8       30.13S
PHILADELPHIA   MOCLDY    75  50  41 SW10      30.12S
$$




USA.gov is the U.S. government's official web portal to all federal, state and local government web resources and services.